Torna al catalogo

STARLINK-35230

AttivoComunicazioniVLEO
NORAD 65681·PAYLOAD·🇺🇸 United States

Lanciato Sep 21, 2025 da Cape Canaveral Space Force Station

Loading…

Prossimi Passaggi (prossime 24 ore)

TLE

AggiornatoSource: CelesTrak SupGP

Epoca: Sep 15, 2026, 03:13 UTC

1 65681C 25212F   26258.13451389 -.00034249  00000+0 -10121-2 0  2583
2 65681  53.1570 182.6271 0001355  81.3321 223.0343 15.34401895    16

Traccia STARLINK-35230 in tempo reale con AllMySat

Download on the App Store